Location: L�gaud
(45.7115°N, 1.7775°E)
Time: 17:14:19
(UTC+00:00)

Cosmos 1666 - Pass Details

Date: 03 March 2021
Orbit: 497 x 518 km, 82.5° (Epoch: 11 April)

Event Time Altitude Azimuth Distance (km) Brightness Sun altitude
Rises 18:28:49 0° 150° (SSE) 2,574 5.9 -8.9°
Reaches altitude 10° 18:31:25 10° 131° (SE) 1,698 4.9 -9.3°
Maximum altitude 18:33:58 18° 87° (E) 1,289 4.1 -9.8°
Drops below altitude 10° 18:36:32 10° 44° (NE) 1,712 4.9 -10.2°
Sets 18:39:09 0° 25° (NNE) 2,605 6.0 -10.7°
